ETH925 HAAB-FOOL

Flight info

Callsign ETH925
Flight time N/A
Altitude 40000
Route BRO1A BRO DCT KAFIA UA410 MPK UG625 ONKAR ONKAR2L
Aircraft B788/H-SDE1E2E3FGHIJ2J3J4J5M1RWXY/LB1D1

Departure

Time 2026-04-30 11:59
Airport Addis Ababa Bole International Airport (HAAB)

Arrival

Time N/A
Airport Libreville Leon M'ba International Airport (FOOL)
Time Latitude Longitude Altitude Speed Heading
2026-04-30 11:28 8.97951 38.79372 7626 ft 0 kts 163°
2026-04-30 11:46 8.97972 38.79367 7630 ft 4 kts 171°
2026-04-30 11:46 8.97998 38.79365 7626 ft 4 kts 185°
2026-04-30 11:46 8.98024 38.79371 7629 ft 4 kts 212°
2026-04-30 11:47 8.98040 38.79388 7628 ft 2 kts 253°
2026-04-30 11:47 8.98042 38.79393 7629 ft 0 kts 253°
2026-04-30 11:51 8.98041 38.79390 7630 ft 3 kts 253°
2026-04-30 11:51 8.98029 38.79352 7629 ft 8 kts 253°
2026-04-30 11:51 8.98015 38.79303 7626 ft 7 kts 253°
2026-04-30 11:51 8.97999 38.79249 7626 ft 10 kts 253°
2026-04-30 11:52 8.97975 38.79171 7626 ft 12 kts 253°
2026-04-30 11:52 8.97953 38.79091 7626 ft 11 kts 254°
2026-04-30 11:52 8.97931 38.79017 7626 ft 10 kts 253°
2026-04-30 11:52 8.97911 38.78951 7626 ft 9 kts 253°
2026-04-30 11:53 8.97893 38.78890 7626 ft 9 kts 253°
2026-04-30 11:53 8.97876 38.78836 7629 ft 8 kts 252°
2026-04-30 11:53 8.97861 38.78787 7626 ft 7 kts 252°
2026-04-30 11:53 8.97835 38.78750 7626 ft 5 kts 203°
2026-04-30 11:54 8.97801 38.78754 7626 ft 6 kts 168°
2026-04-30 11:54 8.97743 38.78771 7626 ft 9 kts 163°
2026-04-30 11:54 8.97684 38.78789 7626 ft 8 kts 163°
2026-04-30 11:54 8.97633 38.78804 7627 ft 7 kts 163°
2026-04-30 11:55 8.97589 38.78803 7627 ft 6 kts 210°
2026-04-30 11:55 8.97557 38.78767 7628 ft 9 kts 244°
2026-04-30 11:55 8.97532 38.78688 7632 ft 15 kts 254°
2026-04-30 11:55 8.97496 38.78565 7627 ft 21 kts 253°
2026-04-30 11:56 8.97457 38.78429 7627 ft 16 kts 259°
2026-04-30 11:56 8.97478 38.78334 7628 ft 13 kts 280°
2026-04-30 11:56 8.97447 38.78289 7628 ft 3 kts 180°
2026-04-30 11:56 8.97441 38.78297 7628 ft 1 kts 134°
2026-04-30 11:57 8.97431 38.78323 7628 ft 6 kts 102°
2026-04-30 11:57 8.97434 38.78371 7627 ft 7 kts 79°
2026-04-30 11:57 8.97443 38.78413 7627 ft 6 kts 75°
2026-04-30 11:57 8.97454 38.78452 7627 ft 5 kts 75°
2026-04-30 11:58 8.97463 38.78486 7627 ft 5 kts 75°
2026-04-30 11:58 8.97472 38.78519 7627 ft 6 kts 72°
2026-04-30 11:58 8.97496 38.78591 7628 ft 34 kts 72°
2026-04-30 11:58 8.97715 38.79316 7623 ft 125 kts 73°
2026-04-30 11:59 8.97908 38.79972 7629 ft 163 kts 73°
2026-04-30 11:59 8.98477 38.81624 8387 ft 189 kts 70°
2026-04-30 11:59 8.98696 38.82449 9081 ft 182 kts 77°
2026-04-30 11:59 8.98970 38.83782 9472 ft 206 kts 77°
2026-04-30 12:00 8.99497 38.85807 9907 ft 244 kts 73°
2026-04-30 12:00 8.99970 38.87479 10735 ft 248 kts 77°
2026-04-30 12:00 8.99879 38.89220 11570 ft 253 kts 105°
2026-04-30 12:00 8.99401 38.90329 12092 ft 260 kts 126°
2026-04-30 12:01 8.98094 38.91564 12908 ft 268 kts 150°
2026-04-30 12:01 8.96260 38.92056 13754 ft 275 kts 179°
2026-04-30 12:01 8.94412 38.91593 14521 ft 278 kts 209°
2026-04-30 12:01 8.93013 38.90278 15316 ft 277 kts 239°
2026-04-30 12:02 8.92048 38.88578 16082 ft 281 kts 243°
2026-04-30 12:02 8.91172 38.86793 16895 ft 285 kts 245°
2026-04-30 12:02 8.90283 38.84990 17681 ft 289 kts 244°
2026-04-30 12:02 8.89342 38.83175 18375 ft 298 kts 243°
2026-04-30 12:03 8.88331 38.81258 18519 ft 325 kts 243°
2026-04-30 12:03 8.86042 38.76865 18706 ft 378 kts 243°
2026-04-30 12:03 8.84786 38.74446 18848 ft 397 kts 243°
2026-04-30 12:04 8.83493 38.71979 19574 ft 397 kts 243°
2026-04-30 12:04 8.82197 38.69495 20161 ft 401 kts 243°
2026-04-30 12:04 8.80913 38.66976 20757 ft 405 kts 246°
2026-04-30 12:04 8.80010 38.64275 21308 ft 408 kts 254°
2026-04-30 12:05 8.79224 38.61543 21877 ft 411 kts 255°
2026-04-30 12:05 8.78428 38.58752 22427 ft 415 kts 254°
2026-04-30 12:05 8.77589 38.55909 22975 ft 419 kts 253°
2026-04-30 12:05 8.76743 38.53080 23482 ft 422 kts 254°
2026-04-30 12:06 8.75916 38.50256 23895 ft 426 kts 254°
2026-04-30 12:06 8.75078 38.47368 24318 ft 430 kts 254°
2026-04-30 12:06 8.74226 38.44460 24753 ft 434 kts 254°
2026-04-30 12:06 8.73349 38.41488 25173 ft 437 kts 254°
2026-04-30 12:07 8.72479 38.38531 25593 ft 441 kts 254°
2026-04-30 12:07 8.71722 38.35514 25999 ft 444 kts 262°
2026-04-30 12:07 8.71257 38.32461 26376 ft 448 kts 262°
2026-04-30 12:07 8.70796 38.29342 26780 ft 451 kts 262°
2026-04-30 12:08 8.70322 38.26194 27161 ft 454 kts 261°
2026-04-30 12:08 8.69835 38.23032 27549 ft 458 kts 261°
2026-04-30 12:08 8.69348 38.19837 27919 ft 461 kts 261°
2026-04-30 12:08 8.68858 38.16621 28277 ft 464 kts 261°
2026-04-30 12:09 8.68366 38.13387 28646 ft 468 kts 262°
2026-04-30 12:09 8.67873 38.10130 29007 ft 471 kts 262°
2026-04-30 12:09 8.67379 38.06853 29358 ft 474 kts 262°
2026-04-30 12:09 8.66882 38.03553 29721 ft 476 kts 262°
2026-04-30 12:10 8.66381 38.00230 30031 ft 480 kts 262°
2026-04-30 12:10 8.65877 37.96890 30375 ft 481 kts 262°
2026-04-30 12:10 8.65370 37.93543 30671 ft 483 kts 262°
2026-04-30 12:10 8.64862 37.90186 30996 ft 484 kts 262°
2026-04-30 12:11 8.64353 37.86822 31293 ft 485 kts 262°
2026-04-30 12:11 8.63842 37.83449 31570 ft 487 kts 261°
2026-04-30 12:11 8.63328 37.80054 31837 ft 489 kts 261°
2026-04-30 12:11 8.62812 37.76656 32120 ft 490 kts 261°
2026-04-30 12:12 8.62295 37.73246 32392 ft 492 kts 261°
2026-04-30 12:12 8.61776 37.69829 32660 ft 493 kts 261°
2026-04-30 12:12 8.61255 37.66399 32915 ft 494 kts 261°
2026-04-30 12:12 8.60733 37.62966 33162 ft 496 kts 261°
2026-04-30 12:13 8.60209 37.59518 33384 ft 497 kts 261°
2026-04-30 12:13 8.59682 37.56060 33634 ft 498 kts 261°
2026-04-30 12:13 8.59155 37.52596 33863 ft 499 kts 261°
2026-04-30 12:13 8.58626 37.49125 34075 ft 500 kts 261°
2026-04-30 12:14 8.58096 37.45649 34263 ft 501 kts 261°
2026-04-30 12:14 8.57565 37.42166 34458 ft 502 kts 261°
2026-04-30 12:14 8.57032 37.38677 34628 ft 503 kts 261°
2026-04-30 12:14 8.56498 37.35186 34882 ft 502 kts 261°
2026-04-30 12:15 8.55966 37.31698 35151 ft 501 kts 261°
2026-04-30 12:15 8.55434 37.28224 35427 ft 500 kts 261°
2026-04-30 12:15 8.54903 37.24754 35709 ft 499 kts 261°
2026-04-30 12:15 8.54381 37.21344 35989 ft 498 kts 261°
2026-04-30 12:16 8.53852 37.17892 36261 ft 496 kts 261°
2026-04-30 12:16 8.53324 37.14450 36527 ft 495 kts 261°
2026-04-30 12:16 8.52790 37.10969 36795 ft 494 kts 261°
2026-04-30 12:16 8.52271 37.07587 37053 ft 493 kts 260°
2026-04-30 12:17 8.51215 37.00707 37585 ft 492 kts 260°
2026-04-30 12:17 8.50697 36.97344 37826 ft 491 kts 260°
2026-04-30 12:17 8.50171 36.93927 37888 ft 494 kts 260°
2026-04-30 12:18 8.49115 36.87068 37885 ft 492 kts 261°
2026-04-30 12:18 8.48066 36.80264 37886 ft 489 kts 261°
2026-04-30 12:19 8.47018 36.73478 37887 ft 489 kts 261°
2026-04-30 12:19 8.45971 36.66699 37890 ft 488 kts 261°
2026-04-30 12:20 8.44922 36.59925 37894 ft 488 kts 261°
2026-04-30 12:20 8.43874 36.53155 37902 ft 488 kts 261°
2026-04-30 12:21 8.42820 36.46383 37908 ft 488 kts 260°
2026-04-30 12:21 8.41772 36.39618 37919 ft 488 kts 261°
2026-04-30 12:22 8.40720 36.32842 37925 ft 488 kts 261°
2026-04-30 12:22 8.39664 36.26065 37928 ft 489 kts 261°
2026-04-30 12:23 8.38608 36.19283 37934 ft 489 kts 261°
2026-04-30 12:23 8.37547 36.12495 37941 ft 489 kts 261°
2026-04-30 12:24 8.36497 36.05756 37938 ft 489 kts 261°
2026-04-30 12:24 8.35435 35.98965 37939 ft 490 kts 261°
2026-04-30 12:25 8.34370 35.92176 37940 ft 490 kts 261°
2026-04-30 12:25 8.33310 35.85388 37939 ft 490 kts 261°
2026-04-30 12:26 8.32242 35.78588 37936 ft 490 kts 261°
2026-04-30 12:26 8.31176 35.71798 37935 ft 490 kts 261°
2026-04-30 12:27 8.30109 35.65011 37931 ft 490 kts 261°
2026-04-30 12:27 8.29039 35.58221 37929 ft 489 kts 260°
2026-04-30 12:28 8.27966 35.51428 37923 ft 490 kts 261°
2026-04-30 12:28 8.26900 35.44636 37923 ft 490 kts 260°
2026-04-30 12:29 8.25825 35.37854 37918 ft 489 kts 261°
2026-04-30 12:29 8.24754 35.31070 37920 ft 489 kts 260°
2026-04-30 12:30 8.23677 35.24287 37915 ft 489 kts 260°
2026-04-30 12:30 8.22608 35.17513 37911 ft 489 kts 261°
2026-04-30 12:31 8.21528 35.10732 37911 ft 489 kts 261°
2026-04-30 12:31 8.20455 35.03954 37901 ft 489 kts 260°
2026-04-30 12:32 8.19370 34.97179 37900 ft 489 kts 261°
2026-04-30 12:32 8.18302 34.90404 37893 ft 489 kts 261°
2026-04-30 12:33 8.17216 34.83627 37879 ft 489 kts 261°
2026-04-30 12:33 8.16140 34.76857 37874 ft 489 kts 260°
2026-04-30 12:34 8.15056 34.70080 37864 ft 489 kts 260°
2026-04-30 12:34 8.13970 34.63317 37853 ft 489 kts 261°
2026-04-30 12:35 8.12962 34.56534 37847 ft 489 kts 268°
2026-04-30 12:35 8.13256 34.49681 37840 ft 490 kts 274°
2026-04-30 12:36 8.13742 34.42866 37831 ft 490 kts 273°
2026-04-30 12:36 8.14203 34.36006 37829 ft 490 kts 273°
2026-04-30 12:37 8.14674 34.29145 37827 ft 490 kts 273°
2026-04-30 12:37 8.15139 34.22286 37828 ft 490 kts 273°
2026-04-30 12:38 8.15605 34.15432 37823 ft 490 kts 273°
2026-04-30 12:38 8.16068 34.08574 37827 ft 490 kts 273°
2026-04-30 12:39 8.16527 34.01721 37821 ft 489 kts 273°
2026-04-30 12:39 8.16992 33.94874 37820 ft 490 kts 273°
2026-04-30 12:40 8.17448 33.88014 37821 ft 489 kts 273°
2026-04-30 12:40 8.17911 33.81162 37820 ft 489 kts 273°
2026-04-30 12:41 8.18367 33.74313 37815 ft 489 kts 273°
2026-04-30 12:41 8.18824 33.67466 37814 ft 489 kts 273°
2026-04-30 12:42 8.19280 33.60623 37823 ft 489 kts 273°
2026-04-30 12:42 8.19732 33.53773 37820 ft 489 kts 273°
2026-04-30 12:43 8.20184 33.46935 37817 ft 488 kts 273°
2026-04-30 12:43 8.20638 33.40097 37821 ft 488 kts 273°
2026-04-30 12:44 8.21086 33.33257 37821 ft 488 kts 273°
2026-04-30 12:44 8.21533 33.26460 37820 ft 488 kts 273°
2026-04-30 12:45 8.21983 33.19579 37821 ft 488 kts 273°
2026-04-30 12:45 8.22424 33.12785 37827 ft 488 kts 273°
2026-04-30 12:46 8.22871 33.05949 37825 ft 488 kts 273°
2026-04-30 12:46 8.23316 32.99116 37823 ft 488 kts 273°
2026-04-30 12:47 8.23756 32.92275 37823 ft 489 kts 273°
2026-04-30 12:47 8.24202 32.85429 37825 ft 488 kts 273°
2026-04-30 12:48 8.24641 32.78580 37825 ft 489 kts 273°
2026-04-30 12:48 8.25011 32.72844 37824 ft 489 kts 273°
2026-04-30 12:49 8.25449 32.66000 37826 ft 489 kts 274°
2026-04-30 12:49 8.25884 32.59195 37828 ft 489 kts 274°
2026-04-30 12:50 8.26324 32.52302 37826 ft 489 kts 274°
2026-04-30 12:50 8.26756 32.45500 37829 ft 489 kts 274°
2026-04-30 12:51 8.27191 32.38649 37823 ft 489 kts 274°
2026-04-30 12:51 8.27624 32.31792 37827 ft 489 kts 274°
2026-04-30 12:52 8.28057 32.24942 37831 ft 489 kts 274°
2026-04-30 12:52 8.28488 32.18086 37832 ft 489 kts 274°
2026-04-30 12:53 8.28918 32.11232 37832 ft 490 kts 274°
2026-04-30 12:53 8.29347 32.04371 37834 ft 490 kts 274°
2026-04-30 12:54 8.29775 31.97511 37832 ft 490 kts 273°
2026-04-30 12:54 8.30202 31.90645 37831 ft 490 kts 273°
2026-04-30 12:55 8.30628 31.83781 37828 ft 490 kts 273°
2026-04-30 12:55 8.31053 31.76917 37828 ft 490 kts 273°
2026-04-30 12:56 8.31477 31.70042 37831 ft 491 kts 273°
2026-04-30 12:56 8.31901 31.63159 37828 ft 491 kts 273°
2026-04-30 12:57 8.32323 31.56271 37833 ft 492 kts 273°
2026-04-30 12:57 8.32744 31.49376 37830 ft 493 kts 273°
2026-04-30 12:58 8.33167 31.42466 37832 ft 493 kts 273°
2026-04-30 12:58 8.33587 31.35548 37829 ft 494 kts 272°
2026-04-30 12:59 8.34000 31.28628 37830 ft 493 kts 272°
2026-04-30 12:59 8.34428 31.21716 37829 ft 493 kts 272°
2026-04-30 13:00 8.34837 31.14856 37828 ft 493 kts 272°
2026-04-30 13:00 8.35255 31.07948 37828 ft 493 kts 272°
2026-04-30 13:01 8.35671 31.00992 37825 ft 493 kts 272°
2026-04-30 13:01 8.36083 30.94119 37827 ft 494 kts 272°
2026-04-30 13:02 8.36494 30.87198 37828 ft 495 kts 272°
2026-04-30 13:02 8.36907 30.80262 37830 ft 494 kts 272°
2026-04-30 13:03 8.37317 30.73333 37826 ft 495 kts 272°
2026-04-30 13:03 8.37728 30.66398 37825 ft 494 kts 272°
2026-04-30 13:04 8.38135 30.59468 37836 ft 494 kts 272°
2026-04-30 13:04 8.38543 30.52539 37831 ft 495 kts 272°
2026-04-30 13:05 8.38948 30.45608 37830 ft 494 kts 272°
2026-04-30 13:06 8.39555 30.35214 37831 ft 494 kts 272°
2026-04-30 13:06 8.39958 30.28278 37831 ft 495 kts 272°
2026-04-30 13:07 8.40360 30.21339 37830 ft 495 kts 272°
2026-04-30 13:07 8.40761 30.14394 37834 ft 495 kts 272°
2026-04-30 13:08 8.41161 30.07444 37831 ft 495 kts 272°
2026-04-30 13:08 8.41561 30.00500 37832 ft 495 kts 272°
2026-04-30 13:09 8.41957 29.93557 37836 ft 495 kts 272°
2026-04-30 13:09 8.42353 29.86616 37832 ft 495 kts 272°
2026-04-30 13:10 8.42748 29.79676 37833 ft 495 kts 272°
2026-04-30 13:10 8.43141 29.72739 37834 ft 495 kts 272°
2026-04-30 13:11 8.43533 29.65805 37826 ft 495 kts 272°
2026-04-30 13:11 8.43925 29.58861 37829 ft 495 kts 272°
2026-04-30 13:12 8.44315 29.51911 37833 ft 496 kts 272°
2026-04-30 13:12 8.44704 29.44966 37831 ft 495 kts 272°
2026-04-30 13:13 8.45282 29.34585 37828 ft 496 kts 272°
2026-04-30 13:14 8.45862 29.24162 37830 ft 496 kts 272°
2026-04-30 13:14 8.46438 29.13737 37831 ft 496 kts 272°
2026-04-30 13:15 8.47011 29.03314 37830 ft 496 kts 272°
2026-04-30 13:16 8.47391 28.96362 37833 ft 496 kts 272°
2026-04-30 13:16 8.47771 28.89410 37831 ft 496 kts 272°
2026-04-30 13:17 8.48338 28.78976 37830 ft 496 kts 272°
2026-04-30 13:18 8.48902 28.68540 37827 ft 496 kts 272°
2026-04-30 13:18 8.49464 28.58109 37825 ft 496 kts 272°
2026-04-30 13:19 8.49836 28.51152 37830 ft 496 kts 272°
2026-04-30 13:19 8.50208 28.44195 37830 ft 496 kts 272°
2026-04-30 13:20 8.50578 28.37245 37832 ft 496 kts 272°
2026-04-30 13:20 8.50947 28.30294 37832 ft 496 kts 272°
2026-04-30 13:21 8.51315 28.23331 37833 ft 496 kts 272°
2026-04-30 13:22 8.51865 28.12896 37831 ft 496 kts 272°
2026-04-30 13:22 8.52412 28.02455 37834 ft 496 kts 272°
2026-04-30 13:23 8.52956 27.92009 37835 ft 496 kts 272°
2026-04-30 13:24 8.53678 27.78077 37833 ft 497 kts 272°
2026-04-30 13:25 8.54395 27.64136 37836 ft 497 kts 272°
2026-04-30 13:26 8.55282 27.46762 37832 ft 497 kts 272°
2026-04-30 13:28 8.56164 27.29323 37839 ft 497 kts 272°
2026-04-30 13:28 8.56690 27.18863 37836 ft 497 kts 272°
2026-04-30 13:29 8.57386 27.04915 37835 ft 497 kts 272°
2026-04-30 13:31 8.58250 26.87476 37837 ft 497 kts 272°
2026-04-30 13:32 8.59106 26.70025 37841 ft 498 kts 272°
2026-04-30 13:33 8.59785 26.56062 37846 ft 498 kts 271°
2026-04-30 13:34 8.60292 26.45579 37842 ft 498 kts 271°
2026-04-30 13:35 8.60906 26.32785 37844 ft 498 kts 271°
2026-04-30 13:36 8.61572 26.18808 37840 ft 498 kts 271°
2026-04-30 13:36 8.62070 26.08317 37845 ft 498 kts 271°
2026-04-30 13:37 8.62564 25.97825 37846 ft 498 kts 271°
2026-04-30 13:38 8.63055 25.87327 37846 ft 498 kts 271°
2026-04-30 13:39 8.63706 25.73341 37846 ft 498 kts 271°
2026-04-30 13:40 8.64191 25.62849 37852 ft 498 kts 271°
2026-04-30 13:40 8.64512 25.55854 37852 ft 498 kts 271°
2026-04-30 13:41 8.64832 25.48859 37854 ft 498 kts 271°
2026-04-30 13:41 8.65149 25.41912 37855 ft 498 kts 271°
2026-04-30 13:42 8.65466 25.34920 37860 ft 498 kts 271°
2026-04-30 13:42 8.65938 25.24429 37854 ft 498 kts 272°
2026-04-30 13:43 8.66255 25.17436 37858 ft 498 kts 271°
2026-04-30 13:43 8.66566 25.10441 37858 ft 498 kts 272°
2026-04-30 13:44 8.66880 25.03445 37862 ft 499 kts 271°
2026-04-30 13:44 8.67191 24.96444 37864 ft 498 kts 272°
2026-04-30 13:45 8.67655 24.85952 37867 ft 498 kts 272°
2026-04-30 13:46 8.67958 24.78961 37866 ft 498 kts 272°
2026-04-30 13:46 8.68271 24.71973 37868 ft 498 kts 272°
2026-04-30 13:47 8.68567 24.64980 37871 ft 498 kts 271°
2026-04-30 13:47 8.68879 24.57998 37874 ft 498 kts 272°
2026-04-30 13:48 8.69177 24.51013 37872 ft 497 kts 272°
2026-04-30 13:48 8.69478 24.44032 37872 ft 497 kts 272°
2026-04-30 13:49 8.69779 24.37059 37875 ft 496 kts 272°
2026-04-30 13:49 8.70073 24.30089 37872 ft 496 kts 272°
2026-04-30 13:50 8.70372 24.23122 37873 ft 496 kts 272°
2026-04-30 13:50 8.70812 24.12679 37873 ft 496 kts 272°
2026-04-30 13:51 8.71105 24.05722 37873 ft 495 kts 272°
2026-04-30 13:51 8.71396 23.98764 37875 ft 495 kts 272°
2026-04-30 13:52 8.71686 23.91810 37878 ft 496 kts 272°
2026-04-30 13:52 8.71975 23.84852 37875 ft 495 kts 272°
2026-04-30 13:53 8.72259 23.77950 37879 ft 494 kts 272°
2026-04-30 13:53 8.72545 23.71010 37881 ft 494 kts 272°
2026-04-30 13:54 8.72822 23.64072 37887 ft 494 kts 272°
2026-04-30 13:54 8.73054 23.57135 37884 ft 493 kts 265°
2026-04-30 13:55 8.72555 23.53714 37905 ft 492 kts 254°
2026-04-30 13:55 8.71410 23.50468 37909 ft 491 kts 243°
2026-04-30 13:55 8.69660 23.47505 37905 ft 491 kts 231°
2026-04-30 13:55 8.67477 23.44861 37890 ft 491 kts 229°
2026-04-30 13:56 8.63001 23.39638 37890 ft 491 kts 228°
2026-04-30 13:56 8.58508 23.34427 37887 ft 492 kts 229°
2026-04-30 13:57 8.54021 23.29201 37884 ft 492 kts 228°
2026-04-30 13:57 8.49527 23.23993 37889 ft 492 kts 228°
2026-04-30 13:58 8.42794 23.16162 37893 ft 492 kts 228°
2026-04-30 13:59 8.38305 23.10953 37879 ft 492 kts 228°
2026-04-30 13:59 8.33814 23.05741 37878 ft 492 kts 228°
2026-04-30 14:00 8.29319 23.00528 37872 ft 492 kts 228°
2026-04-30 14:00 8.22582 22.92718 37869 ft 491 kts 228°
2026-04-30 14:01 8.18093 22.87515 37864 ft 491 kts 228°
2026-04-30 14:01 8.13606 22.82318 37868 ft 491 kts 228°
2026-04-30 14:02 8.09119 22.77124 37863 ft 491 kts 228°
2026-04-30 14:02 8.04633 22.71934 37866 ft 491 kts 228°
2026-04-30 14:03 8.00153 22.66747 37855 ft 490 kts 227°
2026-04-30 14:03 7.95666 22.61559 37857 ft 491 kts 228°
2026-04-30 14:04 7.91213 22.56405 37858 ft 490 kts 227°
2026-04-30 14:04 7.86727 22.51226 37864 ft 490 kts 228°
2026-04-30 14:05 7.82244 22.46042 37856 ft 490 kts 227°
2026-04-30 14:05 7.77762 22.40868 37853 ft 490 kts 228°
2026-04-30 14:06 7.71049 22.33117 37850 ft 489 kts 227°
2026-04-30 14:07 7.64332 22.25368 37845 ft 489 kts 227°
2026-04-30 14:08 7.57606 22.17611 37843 ft 490 kts 227°
2026-04-30 14:08 7.50869 22.09845 37844 ft 491 kts 227°
2026-04-30 14:09 7.46373 22.04666 37846 ft 491 kts 227°
2026-04-30 14:10 7.39638 21.96908 37841 ft 490 kts 227°
2026-04-30 14:10 7.35152 21.91743 37842 ft 490 kts 227°
2026-04-30 14:11 7.30699 21.86620 37842 ft 489 kts 227°
2026-04-30 14:11 7.26220 21.81467 37843 ft 488 kts 228°
2026-04-30 14:12 7.21742 21.76318 37841 ft 489 kts 228°
2026-04-30 14:12 7.17262 21.71167 37843 ft 489 kts 228°
2026-04-30 14:13 7.12789 21.66025 37844 ft 488 kts 228°
2026-04-30 14:13 7.08316 21.60886 37845 ft 488 kts 228°
2026-04-30 14:14 7.03841 21.55745 37841 ft 489 kts 228°
2026-04-30 14:14 6.99361 21.50601 37845 ft 489 kts 228°
2026-04-30 14:15 6.94883 21.45460 37845 ft 488 kts 228°
2026-04-30 14:15 6.90403 21.40320 37844 ft 488 kts 227°
2026-04-30 14:16 6.85919 21.35176 37847 ft 490 kts 227°
2026-04-30 14:16 6.81429 21.30026 37850 ft 490 kts 227°
2026-04-30 14:17 6.76937 21.24875 37850 ft 489 kts 227°
2026-04-30 14:17 6.72444 21.19726 37849 ft 490 kts 227°
2026-04-30 14:18 6.67946 21.14573 37851 ft 490 kts 227°
2026-04-30 14:18 6.61201 21.06847 37853 ft 490 kts 227°
2026-04-30 14:19 6.54452 20.99120 37857 ft 490 kts 227°
2026-04-30 14:20 6.49949 20.93967 37855 ft 490 kts 227°
2026-04-30 14:20 6.43197 20.86244 37855 ft 490 kts 227°
2026-04-30 14:21 6.38726 20.81131 37857 ft 491 kts 227°
2026-04-30 14:22 6.31955 20.73392 37858 ft 492 kts 227°
2026-04-30 14:22 6.25166 20.65635 37856 ft 493 kts 227°
2026-04-30 14:23 6.16108 20.55290 37853 ft 493 kts 227°
2026-04-30 14:24 6.09297 20.47517 37863 ft 498 kts 227°
2026-04-30 14:25 6.00834 20.37859 37862 ft 504 kts 227°
2026-04-30 14:26 5.93893 20.29930 37863 ft 503 kts 227°
2026-04-30 14:27 5.86954 20.22008 37862 ft 503 kts 227°
2026-04-30 14:27 5.82334 20.16737 37863 ft 502 kts 227°
2026-04-30 14:28 5.75413 20.08841 37866 ft 502 kts 227°
2026-04-30 14:28 5.70799 20.03579 37868 ft 503 kts 227°
2026-04-30 14:29 5.61560 19.93046 37865 ft 502 kts 227°